Location: 相模原市立博物館
(35.5593°N, 139.3931°E)
Time: 12:38:23
(UTC+09:00)

N. Korean satellite - Visible Passes

Search period start: 17 October 2021 00:00
Search period end: 27 October 2021 00:00
Orbit: 450 x 495 km, 97.3° (Epoch: 16 October)

Date Brightness Start Highest point End Pass type
(mag) Time Alt. Az. Time Alt. Az. Time Alt. Az.
17 Oct 10.2 03:51:58 10° E 03:52:43 10° E 03:53:28 10° ESE visible
18 Oct 6.6 04:54:26 10° NNE 04:58:07 84° ESE 05:01:45 10° S visible
19 Oct 8.5 04:26:43 10° NNE 04:30:02 32° E 04:33:19 10° SSE visible
20 Oct 9.9 03:59:53 10° ENE 04:01:51 14° E 04:03:49 10° SE visible
21 Oct 6.5 05:03:29 10° N 05:07:08 72° WNW 05:10:44 10° SSW visible
22 Oct 7.9 04:35:34 10° NNE 04:39:04 43° E 04:42:31 10° S visible
23 Oct 9.6 04:08:18 10° NE 04:10:52 18° E 04:13:25 10° SE visible
24 Oct 6.7 05:12:29 10° N 05:16:03 52° WNW 05:19:33 10° SSW visible
25 Oct 7.2 04:44:23 10° NNE 04:47:59 59° E 04:51:32 10° S visible
26 Oct 9.1 04:16:49 10° NE 04:19:48 23° E 04:22:44 10° SSE visible
